Location: Ahstedt
(52.2048°N, 10.1060°E)
Time: 00:21:07
(UTC+00:00)

ARIANE 5 R/B - Pass Details

Date: 18 January 2026
Orbit: 746 x 793 km, 98.8° (Epoch: 18 February)

Event Time Altitude Azimuth Distance (km) Brightness Sun altitude
Rises 06:31:34 0° 14° (NNE) 3,272 5.7 -7.2°
Reaches altitude 10° 06:33:54 10° 13° (NNE) 2,333 4.9 -6.8°
Maximum altitude 06:39:01 73° 290° (WNW) 805 2.5 -6.1°
Drops below altitude 10° 06:44:02 10° 206° (SSW) 2,286 5.0 -5.4°
Sets 06:46:19 0° 204° (SSW) 3,201 5.8 -5.1°
